Location: Unspecified
(0.0000°N, 0.0000°E)
Time: 11:15:09
(UTC+00:00)

Courier 1B Rocket - Pass Details

Date: 21 November 2019
Orbit: 920 x 1202 km, 28.2° (Epoch: 13 December)

Event Time Altitude Azimuth Distance (km) Brightness Sun altitude
Rises 18:07:53 0° 330° (NNW) 3,984 8.3 -5.2°
Reaches altitude 10° 18:13:35 10° 4° (N) 3,082 7.4 -6.5°
Maximum altitude 18:15:33 11° 19° (NNE) 3,017 7.2 -7.0°
Drops below altitude 10° 18:17:32 10° 34° (NE) 3,109 7.1 -7.4°
Enters shadow 18:19:52 - 50° (NE) 3,397 7.2 -8.0°
Sets 18:23:21 0° 67° (ENE) 4,090 - -8.8°
